QPF
0.00 0.00 0.00 0.00 0.00 0.00 0.00 0.00 0.00 0.01 0.04 0.03 0.02 0.02 0.01 0.02 0.02 0.02 0.02 0.03 0.03 0.02 0.03 0.04 0.05 0.06 0.10 0.11 0.11 0.11 0.07 0.05 0.06 0.06 0.07 0.08 0.07 0.07 0.08 0.09 0.10 0.10 0.09 0.08
0.00 0.00 0.00 0.00 0.00 0.00 0.00 0.00 0.00 0.03 0.03 0.01 0.01 0.02 0.01 0.01 0.02 0.01 0.01 0.03 0.02 0.01 0.02 0.04 0.07 0.09 0.09 0.09 0.10 0.08 0.05 0.05 0.04 0.04 0.05 0.05 0.06 0.07 0.07 0.08 0.09 0.09 0.10 0.11
0.00 0.00 0.00 0.00 0.00 0.00 0.00 0.00 0.00 0.02 0.01 0.01 0.02 0.02 0.01 0.01 0.01 0.01 0.01 0.03 0.03 0.02 0.02 0.04 0.08 0.08 0.07 0.07 0.06 0.03 0.03 0.05 0.06 0.05 0.05 0.05 0.07 0.07 0.06 0.06 0.06 0.07 0.08 0.10
0.00 0.00 0.00 0.00 0.00 0.00 0.00 0.00 0.00 0.00 0.00 0.01 0.02 0.02 0.02 0.01 0.01 0.01 0.01 0.03 0.02 0.02 0.02 0.03 0.05 0.04 0.04 0.03 0.02 0.02 0.02 0.04 0.06 0.06 0.04 0.05 0.05 0.06 0.06 0.05 0.05 0.07 0.08 0.09
0.00 0.00 0.00 0.00 0.00 0.00 0.00 0.00 0.00 0.00 0.01 0.01 0.01 0.02 0.02 0.02 0.02 0.02 0.02 0.03 0.02 0.02 0.03 0.04 0.04 0.05 0.05 0.02 0.02 0.03 0.02 0.03 0.04 0.04 0.04 0.04 0.04 0.06 0.07 0.08 0.08 0.09 0.09 0.09
0.00 0.00 0.00 0.00 0.00 0.00 0.00 0.00 0.00 0.00 0.01 0.02 0.01 0.02 0.03 0.03 0.03 0.02 0.03 0.03 0.03 0.02 0.03 0.04 0.04 0.03 0.02 0.02 0.03 0.03 0.03 0.04 0.04 0.04 0.05 0.06 0.06 0.07 0.08 0.07 0.07 0.07 0.07 0.07
0.00 0.00 0.00 0.00 0.00 0.01 0.01 0.01 0.01 0.01 0.02 0.02 0.01 0.03 0.04 0.04 0.04 0.03 0.02 0.03 0.03 0.03 0.03 0.04 0.03 0.01 0.02 0.02 0.03 0.03 0.03 0.03 0.03 0.03 0.05 0.07 0.10 0.10 0.07 0.06 0.07 0.06 0.06 0.07
0.00 0.00 0.00 0.01 0.01 0.01 0.01 0.01 0.01 0.01 0.02 0.02 0.03 0.04 0.05 0.06 0.05 0.04 0.03 0.02 0.03 0.03 0.03 0.03 0.02 0.01 0.02 0.02 0.03 0.02 0.02 0.03 0.03 0.04 0.06 0.08 0.11 0.09 0.07 0.07 0.07 0.07 0.08 0.07
0.00 0.01 0.01 0.01 0.01 0.00 0.01 0.01 0.01 0.02 0.02 0.03 0.04 0.06 0.08 0.10 0.07 0.05 0.04 0.02 0.02 0.03 0.03 0.02 0.01 0.01 0.01 0.01 0.02 0.03 0.03 0.03 0.04 0.05 0.06 0.07 0.09 0.10 0.07 0.06 0.07 0.08 0.07 0.06
0.01 0.01 0.01 0.01 0.01 0.01 0.00 0.01 0.01 0.02 0.02 0.03 0.05 0.08 0.07 0.06 0.05 0.05 0.04 0.03 0.03 0.03 0.04 0.03 0.02 0.02 0.02 0.02 0.02 0.03 0.04 0.04 0.03 0.04 0.06 0.06 0.07 0.09 0.09 0.09 0.09 0.09 0.07 0.05
0.01 0.01 0.01 0.01 0.01 0.01 0.01 0.01 0.01 0.01 0.02 0.02 0.04 0.06 0.05 0.03 0.03 0.03 0.02 0.02 0.03 0.04 0.06 0.07 0.04 0.03 0.03 0.03 0.03 0.03 0.05 0.04 0.03 0.04 0.07 0.08 0.07 0.07 0.09 0.10 0.10 0.07 0.06 0.05
0.01 0.01 0.01 0.01 0.01 0.00 0.00 0.01 0.01 0.02 0.02 0.02 0.03 0.05 0.05 0.05 0.04 0.03 0.02 0.02 0.02 0.03 0.05 0.06 0.05 0.04 0.03 0.02 0.03 0.04 0.04 0.04 0.04 0.06 0.11 0.13 0.12 0.10 0.08 0.07 0.07 0.05 0.04 0.04
0.01 0.01 0.01 0.01 0.01 0.01 0.01 0.01 0.01 0.01 0.01 0.02 0.03 0.05 0.09 0.09 0.05 0.03 0.03 0.02 0.03 0.04 0.03 0.02 0.03 0.05 0.04 0.03 0.03 0.05 0.06 0.08 0.10 0.12 0.14 0.15 0.12 0.09 0.06 0.05 0.06 0.05 0.04 0.03
0.01 0.01 0.01 0.02 0.02 0.01 0.00 0.01 0.01 0.01 0.03 0.05 0.07 0.10 0.12 0.09 0.06 0.06 0.04 0.03 0.03 0.03 0.02 0.02 0.03 0.06 0.05 0.05 0.03 0.03 0.04 0.05 0.05 0.06 0.07 0.09 0.07 0.05 0.04 0.04 0.04 0.04 0.03 0.03
0.01 0.01 0.01 0.01 0.01 0.00 0.01 0.02 0.02 0.02 0.04 0.06 0.08 0.10 0.10 0.06 0.04 0.03 0.02 0.01 0.01 0.02 0.02 0.02 0.04 0.05 0.05 0.07 0.07 0.04 0.04 0.05 0.05 0.06 0.06 0.04 0.04 0.03 0.03 0.03 0.03 0.04 0.03 0.03
0.01 0.01 0.02 0.02 0.02 0.01 0.01 0.02 0.01 0.01 0.02 0.03 0.05 0.08 0.07 0.03 0.03 0.02 0.01 0.01 0.02 0.02 0.03 0.03 0.04 0.03 0.05 0.07 0.06 0.05 0.07 0.05 0.05 0.05 0.05 0.04 0.03 0.02 0.03 0.03 0.03 0.03 0.03 0.02
0.01 0.02 0.02 0.02 0.02 0.02 0.03 0.03 0.02 0.01 0.01 0.02 0.04 0.05 0.03 0.02 0.02 0.01 0.01 0.02 0.03 0.03 0.03 0.03 0.04 0.04 0.05 0.05 0.05 0.03 0.03 0.04 0.05 0.04 0.03 0.03 0.02 0.02 0.03 0.03 0.03 0.03 0.03 0.03
0.01 0.01 0.02 0.02 0.03 0.04 0.03 0.03 0.03 0.03 0.02 0.03 0.04 0.04 0.03 0.02 0.02 0.01 0.02 0.02 0.03 0.04 0.04 0.03 0.03 0.04 0.03 0.03 0.03 0.02 0.02 0.02 0.03 0.02 0.02 0.02 0.03 0.03 0.03 0.03 0.03 0.04 0.04 0.03
0.01 0.01 0.02 0.02 0.03 0.04 0.04 0.04 0.03 0.04 0.04 0.04 0.04 0.03 0.03 0.02 0.01 0.02 0.03 0.02 0.03 0.05 0.05 0.04 0.04 0.04 0.03 0.03 0.03 0.02 0.02 0.02 0.02 0.02 0.02 0.02 0.02 0.02 0.02 0.03 0.03 0.04 0.03 0.02
0.00 0.01 0.01 0.02 0.03 0.04 0.04 0.03 0.02 0.03 0.04 0.04 0.03 0.03 0.03 0.02 0.02 0.03 0.03 0.02 0.03 0.05 0.06 0.05 0.03 0.03 0.04 0.03 0.03 0.02 0.02 0.03 0.03 0.03 0.03 0.03 0.02 0.02 0.03 0.03 0.03 0.03 0.01 0.01
0.01 0.01 0.02 0.02 0.03 0.04 0.04 0.02 0.02 0.04 0.05 0.03 0.02 0.02 0.02 0.02 0.02 0.02 0.02 0.03 0.03 0.03 0.04 0.06 0.06 0.04 0.04 0.04 0.04 0.04 0.03 0.05 0.04 0.03 0.03 0.03 0.03 0.03 0.03 0.02 0.02 0.02 0.02 0.01
0.02 0.02 0.02 0.02 0.03 0.04 0.05 0.03 0.03 0.04 0.02 0.03 0.03 0.02 0.02 0.02 0.01 0.02 0.03 0.04 0.03 0.01 0.02 0.04 0.04 0.03 0.03 0.04 0.05 0.03 0.03 0.05 0.04 0.03 0.02 0.03 0.04 0.04 0.02 0.02 0.02 0.03 0.04 0.03
0.01 0.02 0.03 0.04 0.05 0.05 0.05 0.04 0.03 0.03 0.03 0.02 0.03 0.02 0.02 0.03 0.02 0.02 0.02 0.03 0.02 0.01 0.01 0.02 0.02 0.02 0.04 0.05 0.04 0.03 0.03 0.03 0.03 0.03 0.03 0.03 0.04 0.04 0.03 0.03 0.03 0.04 0.04 0.04
0.01 0.01 0.02 0.02 0.03 0.03 0.02 0.02 0.01 0.01 0.01 0.01 0.02 0.02 0.03 0.03 0.02 0.01 0.01 0.01 0.02 0.01 0.01 0.02 0.02 0.02 0.02 0.03 0.02 0.02 0.02 0.02 0.03 0.03 0.03 0.02 0.02 0.02 0.02 0.04 0.04 0.04 0.04 0.04
0.00 0.00 0.00 0.01 0.01 0.02 0.01 0.01 0.01 0.01 0.01 0.01 0.01 0.02 0.02 0.02 0.02 0.01 0.01 0.01 0.01 0.01 0.01 0.01 0.02 0.02 0.01 0.01 0.01 0.01 0.02 0.02 0.01 0.02 0.02 0.01 0.01 0.01 0.02 0.03 0.03 0.03 0.03 0.03
0.00 0.00 0.00 0.01 0.01 0.01 0.01 0.01 0.01 0.01 0.01 0.02 0.01 0.01 0.01 0.01 0.01 0.01 0.01 0.01 0.01 0.01 0.02 0.01 0.01 0.01 0.01 0.01 0.01 0.02 0.02 0.01 0.02 0.02 0.01 0.01 0.01 0.01 0.02 0.03 0.03 0.02 0.03 0.03
MSLP
1013.18 1013.42 1013.50 1013.44 1013.32 1013.23 1013.28 1013.51 1013.97 1014.62 1015.37 1016.14 1016.79 1017.24 1017.44 1017.36 1017.09 1016.69 1016.26 1015.90 1015.68 1015.59 1015.63 1015.70 1015.74 1015.64 1015.35 1014.84 1014.14 1013.30 1012.40 1011.55 1010.82 1010.27 1009.94 1009.80 1009.82 1009.94 1010.11 1010.27 1010.40 1010.48 1010.52 1010.54
1014.03 1014.27 1014.33 1014.24 1014.07 1013.93 1013.91 1014.09 1014.50 1015.10 1015.83 1016.57 1017.22 1017.67 1017.86 1017.80 1017.51 1017.10 1016.65 1016.26 1016.01 1015.90 1015.93 1016.01 1016.07 1016.03 1015.81 1015.39 1014.78 1014.03 1013.21 1012.42 1011.72 1011.17 1010.79 1010.57 1010.49 1010.49 1010.54 1010.58 1010.59 1010.58 1010.56 1010.54
1014.90 1015.11 1015.13 1014.98 1014.75 1014.53 1014.44 1014.55 1014.89 1015.46 1016.17 1016.92 1017.60 1018.10 1018.36 1018.35 1018.11 1017.72 1017.28 1016.87 1016.56 1016.39 1016.34 1016.36 1016.38 1016.32 1016.12 1015.76 1015.24 1014.59 1013.88 1013.19 1012.56 1012.06 1011.68 1011.44 1011.29 1011.20 1011.14 1011.07 1010.99 1010.90 1010.81 1010.75
1015.73 1015.89 1015.83 1015.62 1015.30 1015.00 1014.83 1014.86 1015.15 1015.68 1016.39 1017.18 1017.92 1018.52 1018.89 1018.99 1018.86 1018.54 1018.13 1017.70 1017.34 1017.08 1016.91 1016.82 1016.74 1016.60 1016.38 1016.03 1015.57 1015.01 1014.42 1013.83 1013.31 1012.88 1012.55 1012.31 1012.13 1011.99 1011.85 1011.70 1011.55 1011.39 1011.25 1011.15
1016.48 1016.56 1016.43 1016.13 1015.73 1015.35 1015.10 1015.06 1015.30 1015.81 1016.53 1017.37 1018.20 1018.91 1019.43 1019.68 1019.68 1019.47 1019.12 1018.71 1018.30 1017.94 1017.65 1017.41 1017.19 1016.94 1016.65 1016.28 1015.84 1015.35 1014.85 1014.37 1013.95 1013.60 1013.33 1013.12 1012.94 1012.77 1012.59 1012.39 1012.18 1011.98 1011.80 1011.67
1017.14 1017.14 1016.93 1016.55 1016.08 1015.63 1015.31 1015.22 1015.42 1015.91 1016.64 1017.52 1018.44 1019.28 1019.94 1020.35 1020.50 1020.41 1020.15 1019.76 1019.33 1018.89 1018.49 1018.11 1017.74 1017.38 1016.99 1016.57 1016.12 1015.66 1015.22 1014.83 1014.49 1014.21 1013.99 1013.81 1013.64 1013.46 1013.26 1013.04 1012.80 1012.56 1012.35 1012.19
1017.73 1017.66 1017.39 1016.95 1016.43 1015.93 1015.56 1015.42 1015.59 1016.06 1016.79 1017.70 1018.68 1019.61 1020.39 1020.93 1021.22 1021.26 1021.08 1020.75 1020.32 1019.84 1019.34 1018.86 1018.38 1017.90 1017.41 1016.93 1016.45 1016.00 1015.58 1015.23 1014.94 1014.71 1014.52 1014.36 1014.20 1014.01 1013.80 1013.56 1013.30 1013.05 1012.82 1012.63
1018.28 1018.16 1017.85 1017.39 1016.84 1016.32 1015.93 1015.78 1015.91 1016.36 1017.07 1017.98 1018.97 1019.94 1020.78 1021.41 1021.79 1021.93 1021.83 1021.55 1021.15 1020.66 1020.13 1019.57 1019.01 1018.45 1017.90 1017.36 1016.84 1016.36 1015.95 1015.60 1015.31 1015.09 1014.91 1014.75 1014.58 1014.39 1014.16 1013.91 1013.64 1013.38 1013.14 1012.94
1018.82 1018.68 1018.37 1017.91 1017.38 1016.87 1016.49 1016.34 1016.46 1016.87 1017.54 1018.40 1019.36 1020.30 1021.13 1021.78 1022.19 1022.37 1022.34 1022.11 1021.74 1021.28 1020.75 1020.18 1019.59 1018.99 1018.39 1017.81 1017.26 1016.75 1016.31 1015.94 1015.63 1015.39 1015.18 1015.00 1014.81 1014.59 1014.35 1014.09 1013.82 1013.55 1013.30 1013.09
1019.35 1019.22 1018.93 1018.52 1018.04 1017.59 1017.26 1017.12 1017.24 1017.62 1018.23 1019.01 1019.87 1020.71 1021.47 1022.06 1022.44 1022.61 1022.59 1022.40 1022.07 1021.65 1021.15 1020.61 1020.04 1019.45 1018.84 1018.25 1017.67 1017.14 1016.66 1016.25 1015.90 1015.61 1015.37 1015.14 1014.92 1014.68 1014.42 1014.15 1013.87 1013.61 1013.36 1013.15
1019.85 1019.76 1019.53 1019.19 1018.80 1018.44 1018.18 1018.10 1018.23 1018.58 1019.12 1019.78 1020.51 1021.21 1021.82 1022.28 1022.57 1022.69 1022.64 1022.45 1022.15 1021.78 1021.34 1020.85 1020.33 1019.78 1019.20 1018.61 1018.03 1017.48 1016.97 1016.52 1016.13 1015.79 1015.50 1015.24 1014.98 1014.72 1014.45 1014.18 1013.90 1013.64 1013.40 1013.20
1020.30 1020.27 1020.11 1019.87 1019.59 1019.35 1019.19 1019.18 1019.34 1019.67 1020.13 1020.68 1021.25 1021.77 1022.20 1022.50 1022.65 1022.66 1022.55 1022.34 1022.06 1021.73 1021.35 1020.93 1020.47 1019.98 1019.45 1018.89 1018.32 1017.77 1017.24 1016.76 1016.34 1015.97 1015.64 1015.35 1015.07 1014.80 1014.53 1014.26 1013.99 1013.74 1013.52 1013.33
1020.67 1020.69 1020.62 1020.48 1020.33 1020.21 1020.17 1020.25 1020.46 1020.78 1021.18 1021.61 1022.02 1022.37 1022.61 1022.72 1022.71 1022.60 1022.41 1022.16 1021.88 1021.57 1021.25 1020.89 1020.50 1020.07 1019.60 1019.08 1018.54 1018.00 1017.47 1016.98 1016.54 1016.15 1015.82 1015.51 1015.24 1014.97 1014.71 1014.46 1014.21 1013.98 1013.77 1013.59
1020.94 1021.00 1021.00 1020.97 1020.94 1020.94 1021.03 1021.20 1021.46 1021.79 1022.15 1022.48 1022.75 1022.93 1022.99 1022.94 1022.78 1022.54 1022.27 1021.98 1021.68 1021.40 1021.11 1020.81 1020.48 1020.10 1019.68 1019.20 1018.69 1018.17 1017.66 1017.18 1016.75 1016.37 1016.04 1015.76 1015.50 1015.26 1015.03 1014.80 1014.57 1014.35 1014.16 1013.98
1021.09 1021.19 1021.25 1021.30 1021.37 1021.50 1021.69 1021.95 1022.27 1022.61 1022.93 1023.19 1023.35 1023.39 1023.31 1023.11 1022.83 1022.50 1022.16 1021.83 1021.52 1021.25 1020.99 1020.73 1020.45 1020.11 1019.73 1019.29 1018.81 1018.31 1017.82 1017.37 1016.96 1016.61 1016.32 1016.07 1015.85 1015.65 1015.45 1015.25 1015.04 1014.83 1014.64 1014.45
1021.16 1021.26 1021.36 1021.47 1021.63 1021.85 1022.13 1022.46 1022.83 1023.18 1023.47 1023.67 1023.74 1023.69 1023.50 1023.21 1022.84 1022.45 1022.07 1021.72 1021.42 1021.16 1020.92 1020.69 1020.43 1020.13 1019.77 1019.35 1018.90 1018.43 1017.97 1017.54 1017.18 1016.87 1016.62 1016.41 1016.24 1016.08 1015.91 1015.73 1015.54 1015.33 1015.12 1014.91
1021.14 1021.25 1021.37 1021.52 1021.74 1022.02 1022.36 1022.74 1023.12 1023.47 1023.74 1023.89 1023.90 1023.78 1023.53 1023.18 1022.78 1022.36 1021.98 1021.63 1021.35 1021.11 1020.90 1020.68 1020.44 1020.16 1019.81 1019.41 1018.98 1018.53 1018.10 1017.70 1017.37 1017.11 1016.90 1016.74 1016.60 1016.47 1016.33 1016.17 1015.98 1015.76 1015.52 1015.27
1021.06 1021.17 1021.30 1021.48 1021.73 1022.04 1022.41 1022.80 1023.18 1023.51 1023.74 1023.85 1023.82 1023.65 1023.37 1023.00 1022.60 1022.20 1021.84 1021.53 1021.28 1021.07 1020.88 1020.69 1020.46 1020.19 1019.85 1019.46 1019.04 1018.61 1018.20 1017.83 1017.53 1017.30 1017.12 1016.99 1016.88 1016.77 1016.64 1016.47 1016.26 1016.02 1015.75 1015.45
1020.95 1021.05 1021.19 1021.39 1021.66 1021.98 1022.35 1022.73 1023.08 1023.36 1023.54 1023.60 1023.53 1023.34 1023.05 1022.69 1022.32 1021.96 1021.64 1021.38 1021.17 1021.00 1020.85 1020.68 1020.47 1020.20 1019.87 1019.49 1019.08 1018.66 1018.27 1017.93 1017.65 1017.43 1017.27 1017.14 1017.03 1016.92 1016.78 1016.59 1016.36 1016.09 1015.78 1015.44
1020.82 1020.92 1021.07 1021.28 1021.55 1021.87 1022.22 1022.56 1022.86 1023.09 1023.22 1023.23 1023.12 1022.90 1022.61 1022.28 1021.94 1021.63 1021.38 1021.17 1021.02 1020.89 1020.77 1020.63 1020.43 1020.18 1019.86 1019.50 1019.10 1018.70 1018.32 1017.99 1017.71 1017.50 1017.33 1017.19 1017.06 1016.92 1016.75 1016.53 1016.27 1015.97 1015.63 1015.26
1020.65 1020.77 1020.94 1021.16 1021.43 1021.74 1022.06 1022.35 1022.60 1022.77 1022.83 1022.79 1022.64 1022.41 1022.13 1021.82 1021.52 1021.27 1021.06 1020.91 1020.81 1020.72 1020.64 1020.52 1020.35 1020.12 1019.82 1019.48 1019.10 1018.72 1018.35 1018.03 1017.75 1017.52 1017.33 1017.16 1016.99 1016.80 1016.58 1016.33 1016.04 1015.71 1015.35 1014.98
1020.46 1020.59 1020.78 1021.01 1021.28 1021.58 1021.86 1022.12 1022.31 1022.42 1022.44 1022.35 1022.18 1021.94 1021.66 1021.37 1021.11 1020.90 1020.73 1020.63 1020.56 1020.51 1020.45 1020.36 1020.22 1020.01 1019.75 1019.43 1019.09 1018.73 1018.38 1018.06 1017.78 1017.52 1017.29 1017.07 1016.85 1016.61 1016.34 1016.04 1015.72 1015.38 1015.02 1014.66
1020.23 1020.37 1020.57 1020.82 1021.09 1021.37 1021.64 1021.86 1022.02 1022.09 1022.06 1021.95 1021.76 1021.51 1021.25 1020.98 1020.74 1020.56 1020.42 1020.34 1020.30 1020.27 1020.23 1020.16 1020.05 1019.88 1019.65 1019.37 1019.06 1018.74 1018.42 1018.10 1017.81 1017.53 1017.25 1016.98 1016.69 1016.39 1016.07 1015.73 1015.38 1015.03 1014.68 1014.35
1019.95 1020.10 1020.30 1020.55 1020.83 1021.10 1021.36 1021.57 1021.71 1021.76 1021.72 1021.60 1021.41 1021.17 1020.91 1020.66 1020.45 1020.27 1020.16 1020.08 1020.04 1020.02 1020.00 1019.94 1019.85 1019.71 1019.53 1019.30 1019.03 1018.75 1018.45 1018.15 1017.85 1017.54 1017.22 1016.89 1016.54 1016.18 1015.81 1015.43 1015.05 1014.70 1014.37 1014.07
1019.61 1019.75 1019.95 1020.20 1020.47 1020.76 1021.02 1021.23 1021.37 1021.43 1021.40 1021.29 1021.12 1020.90 1020.66 1020.43 1020.22 1020.05 1019.93 1019.85 1019.81 1019.78 1019.75 1019.71 1019.64 1019.53 1019.38 1019.20 1018.98 1018.74 1018.47 1018.18 1017.87 1017.54 1017.19 1016.81 1016.41 1015.99 1015.57 1015.16 1014.77 1014.41 1014.10 1013.83
1019.20 1019.32 1019.51 1019.75 1020.03 1020.32 1020.60 1020.83 1021.00 1021.08 1021.09 1021.01 1020.87 1020.68 1020.46 1020.25 1020.04 1019.87 1019.74 1019.64 1019.57 1019.53 1019.49 1019.45 1019.39 1019.31 1019.20 1019.05 1018.88 1018.67 1018.43 1018.15 1017.84 1017.50 1017.12 1016.70 1016.26 1015.81 1015.35 1014.91 1014.51 1014.15 1013.85 1013.59
Thickness
5749 5745 5740 5743 5747 5748 5746 5741 5736 5738 5742 5736 5731 5729 5731 5733 5732 5731 5731 5730 5729 5728 5728 5727 5725 5723 5722 5720 5718 5716 5714 5713 5712 5711 5709 5708 5708 5708 5708 5707 5704 5702 5701 5700
5741 5737 5743 5746 5745 5743 5741 5736 5734 5733 5737 5733 5727 5725 5729 5729 5726 5726 5724 5723 5723 5723 5722 5719 5718 5717 5715 5713 5711 5709 5708 5707 5707 5706 5704 5703 5703 5703 5703 5702 5700 5698 5698 5696
5734 5737 5742 5738 5736 5733 5735 5734 5731 5727 5729 5732 5726 5719 5721 5723 5725 5722 5721 5720 5720 5717 5715 5714 5713 5712 5710 5708 5706 5705 5703 5702 5701 5701 5700 5699 5697 5697 5697 5696 5695 5694 5693 5691
5734 5738 5736 5733 5730 5730 5726 5734 5729 5725 5722 5721 5722 5711 5713 5716 5714 5714 5713 5714 5713 5713 5712 5710 5709 5707 5705 5704 5703 5701 5699 5697 5695 5695 5695 5694 5692 5691 5690 5691 5691 5690 5689 5687
5727 5731 5728 5723 5724 5727 5725 5731 5728 5725 5723 5720 5720 5714 5709 5713 5705 5705 5707 5707 5708 5709 5708 5705 5704 5702 5701 5701 5700 5697 5695 5692 5690 5690 5689 5687 5687 5686 5687 5686 5685 5685 5685 5683
5728 5733 5728 5723 5727 5726 5726 5725 5724 5724 5725 5705 5712 5708 5700 5704 5699 5700 5701 5702 5703 5704 5703 5701 5701 5699 5698 5697 5696 5694 5690 5688 5686 5685 5684 5682 5681 5680 5680 5679 5680 5680 5681 5679
5719 5723 5726 5726 5718 5719 5719 5711 5704 5703 5703 5701 5713 5702 5694 5699 5700 5698 5697 5698 5698 5699 5698 5696 5695 5694 5692 5692 5690 5689 5686 5683 5683 5681 5679 5678 5677 5676 5675 5675 5675 5676 5677 5676
5709 5708 5715 5718 5713 5708 5711 5709 5695 5689 5692 5700 5704 5693 5693 5696 5696 5696 5696 5695 5694 5693 5693 5692 5691 5690 5688 5687 5686 5684 5682 5680 5679 5678 5676 5675 5673 5674 5673 5672 5673 5672 5672 5671
5705 5703 5715 5715 5717 5712 5706 5708 5713 5705 5703 5695 5695 5692 5690 5692 5690 5690 5690 5690 5688 5687 5687 5688 5687 5686 5685 5684 5682 5681 5679 5677 5676 5674 5673 5671 5670 5669 5668 5667 5667 5668 5666 5667
5704 5696 5707 5713 5716 5713 5711 5708 5707 5702 5686 5681 5687 5687 5684 5682 5683 5685 5685 5685 5685 5684 5683 5683 5683 5683 5682 5681 5679 5678 5676 5674 5673 5671 5669 5668 5667 5666 5664 5664 5663 5662 5662 5662
5706 5696 5701 5705 5698 5697 5702 5701 5701 5703 5699 5686 5678 5679 5689 5685 5684 5683 5683 5683 5682 5680 5679 5679 5679 5679 5679 5678 5677 5674 5673 5671 5670 5668 5666 5664 5663 5662 5661 5660 5659 5659 5659 5659
5700 5699 5696 5699 5705 5708 5705 5700 5698 5690 5687 5691 5683 5676 5690 5688 5686 5683 5681 5681 5680 5678 5678 5677 5675 5675 5674 5673 5673 5671 5670 5668 5666 5665 5663 5661 5660 5659 5659 5658 5657 5656 5656 5656
5696 5692 5688 5690 5694 5700 5697 5698 5699 5698 5692 5685 5677 5673 5686 5686 5682 5680 5678 5677 5677 5675 5674 5674 5672 5670 5670 5669 5668 5668 5667 5665 5664 5663 5661 5659 5658 5657 5656 5656 5655 5655 5655 5654
5696 5692 5689 5681 5684 5690 5688 5689 5693 5693 5687 5679 5677 5675 5678 5678 5675 5674 5674 5673 5674 5672 5670 5669 5668 5667 5667 5666 5666 5665 5664 5664 5663 5661 5659 5657 5657 5656 5656 5655 5654 5654 5653 5652
5696 5690 5691 5692 5693 5691 5687 5685 5686 5684 5683 5678 5677 5677 5676 5675 5673 5673 5673 5672 5671 5669 5668 5666 5665 5664 5664 5664 5663 5663 5662 5662 5661 5660 5659 5657 5656 5656 5655 5654 5653 5652 5651 5650
5692 5686 5688 5686 5689 5687 5682 5683 5683 5681 5682 5680 5678 5674 5678 5676 5675 5673 5672 5670 5668 5667 5666 5665 5664 5662 5662 5662 5661 5661 5660 5660 5660 5658 5658 5657 5656 5655 5654 5653 5651 5650 5648 5647
5692 5685 5682 5682 5687 5683 5675 5679 5680 5680 5681 5679 5674 5673 5675 5673 5672 5671 5670 5669 5666 5665 5664 5663 5662 5661 5660 5660 5659 5659 5659 5659 5658 5657 5656 5655 5654 5653 5652 5652 5650 5648 5646 5644
5686 5685 5686 5684 5679 5664 5676 5686 5684 5679 5678 5680 5678 5677 5676 5674 5674 5673 5671 5668 5666 5665 5664 5663 5662 5661 5660 5660 5659 5659 5659 5658 5657 5656 5656 5655 5654 5653 5651 5650 5647 5645 5644 5642
5688 5684 5683 5680 5675 5674 5678 5681 5679 5675 5674 5678 5676 5676 5677 5677 5676 5673 5671 5669 5666 5665 5663 5662 5662 5661 5660 5660 5659 5659 5658 5658 5657 5656 5655 5655 5654 5652 5650 5647 5645 5643 5641 5640
5687 5686 5683 5678 5669 5664 5673 5682 5685 5678 5671 5677 5676 5674 5675 5675 5672 5670 5669 5668 5666 5664 5662 5661 5661 5661 5660 5659 5659 5658 5657 5656 5655 5655 5655 5654 5652 5650 5648 5645 5643 5642 5640 5639
5680 5680 5680 5677 5671 5675 5678 5682 5682 5667 5667 5675 5675 5675 5674 5672 5670 5669 5669 5667 5665 5663 5662 5661 5660 5660 5659 5658 5657 5656 5656 5655 5654 5655 5654 5652 5650 5648 5647 5644 5641 5640 5640 5639
5676 5677 5673 5674 5669 5669 5678 5678 5671 5669 5674 5675 5675 5674 5672 5671 5670 5669 5668 5666 5664 5662 5661 5660 5658 5658 5658 5658 5656 5655 5654 5654 5654 5654 5653 5651 5649 5648 5647 5643 5641 5640 5638 5638
5675 5676 5677 5674 5673 5676 5679 5676 5676 5675 5673 5674 5673 5673 5671 5669 5668 5668 5667 5665 5663 5662 5660 5659 5658 5656 5656 5656 5656 5654 5653 5654 5654 5653 5651 5650 5648 5647 5645 5643 5641 5640 5639 5639
5678 5676 5675 5673 5677 5678 5679 5678 5677 5676 5675 5675 5674 5672 5671 5669 5668 5667 5665 5664 5662 5661 5659 5658 5657 5656 5654 5655 5655 5653 5653 5653 5652 5650 5649 5649 5647 5646 5644 5643 5643 5641 5640 5639
5675 5673 5673 5672 5676 5677 5677 5678 5677 5676 5675 5674 5673 5672 5670 5668 5667 5666 5664 5662 5661 5659 5658 5658 5656 5655 5654 5654 5654 5653 5652 5651 5649 5648 5648 5648 5648 5647 5644 5643 5640 5639 5636 5634
5675 5673 5671 5672 5675 5674 5675 5677 5678 5675 5673 5671 5670 5669 5669 5667 5665 5664 5662 5661 5660 5658 5657 5657 5656 5656 5656 5655 5654 5653 5652 5651 5648 5648 5647 5649 5649 5647 5647 5645 5642 5634 5631 5627